| time (UTC) | temp F | wind direction | speed MPH | gust MPH | rain 1hr in | rain 24hr in | rain mn in | humidity % | barometer mb |
| 20260505153029 | 57 | 5 | 11.0 | 19.0 | 0.00 | 0.00 | 0.00 | 68 | 1010.4 |
| 20260505152030 | 57 | 347 | 10.0 | 17.0 | 0.00 | 0.00 | 0.00 | 69 | 1010.4 |
| 20260505151030 | 57 | 14 | 11.0 | 19.0 | 0.00 | 0.00 | 0.00 | 68 | 1010.4 |
| 20260505125030 | 57 | 1 | 11.0 | 17.0 | 0.00 | 0.00 | 0.00 | 68 | 1011.1 |
| 20260505124030 | 57 | 18 | 11.0 | 16.0 | 0.00 | 0.00 | 0.00 | 68 | 1011.1 |
| 20260505123030 | 56 | 13 | 10.0 | 16.0 | 0.00 | 0.00 | 0.00 | 70 | 1011.2 |
| 20260505122029 | 56 | 358 | 9.0 | 15.0 | 0.00 | 0.00 | 0.00 | 69 | 1011.3 |
| 20260505121029 | 57 | 27 | 9.0 | 16.0 | 0.00 | 0.00 | 0.00 | 68 | 1011.2 |
| 20260505120030 | 56 | 38 | 6.0 | 14.0 | 0.00 | 0.00 | 0.00 | 67 | 1011.2 |
| 20260505115029 | 56 | 34 | 6.0 | 14.0 | 0.00 | 0.00 | 0.00 | 68 | 1011.4 |
| 20260505114030 | 55 | 55 | 7.0 | 15.0 | 0.00 | 0.00 | 0.00 | 68 | 1011.3 |
| 20260505113030 | 55 | 25 | 7.0 | 15.0 | 0.00 | 0.00 | 0.00 | 69 | 1011.4 |
| 20260505112030 | 55 | 14 | 7.0 | 13.0 | 0.00 | 0.00 | 0.00 | 70 | 1011.4 |
| 20260505111030 | 55 | 36 | 7.0 | 15.0 | 0.00 | 0.00 | 0.00 | 70 | 1011.5 |
| 20260505102029 | 52 | 58 | 7.0 | 12.0 | 0.00 | 0.00 | 0.00 | 75 | 1011.9 |
| 20260505101029 | 53 | 42 | 7.0 | 12.0 | 0.00 | 0.00 | 0.00 | 76 | 1012.0 |
| 20260505100029 | 52 | 41 | 7.0 | 14.0 | 0.00 | 0.00 | 0.00 | 77 | 1011.9 |
| 20260505095029 | 52 | 41 | 7.0 | 14.0 | 0.00 | 0.00 | 0.00 | 79 | 1012.0 |
| 20260505094030 | 52 | 43 | 6.0 | 13.0 | 0.00 | 0.00 | 0.00 | 79 | 1011.9 |
| 20260505093030 | 51 | 48 | 8.0 | 15.0 | 0.00 | 0.00 | 0.00 | 80 | 1012.1 |
| 20260505092030 | 51 | 52 | 6.0 | 13.0 | 0.00 | 0.00 | 0.00 | 82 | 1012.1 |
| 20260505091030 | 51 | 55 | 8.0 | 13.0 | 0.00 | 0.00 | 0.00 | 83 | 1011.9 |
| 20260505090030 | 50 | 47 | 9.0 | 14.0 | 0.00 | 0.00 | 0.00 | 85 | 1012.0 |
| 20260505085030 | 50 | 45 | 9.0 | 14.0 | 0.00 | 0.00 | 0.00 | 85 | 1011.8 |
| 20260505084030 | 50 | 48 | 8.0 | 13.0 | 0.00 | 0.00 | 0.00 | 86 | 1012.0 |
| 20260505083030 | 50 | 56 | 9.0 | 15.0 | 0.00 | 0.00 | 0.00 | 86 | 1012.1 |
| 20260505082030 | 50 | 57 | 9.0 | 15.0 | 0.00 | 0.00 | 0.00 | 87 | 1012.1 |
| 20260505081030 | 49 | 44 | 10.0 | 14.0 | 0.00 | 0.00 | 0.00 | 87 | 1012.3 |
| 20260505080030 | 49 | 53 | 7.0 | 13.0 | 0.00 | 0.00 | 0.00 | 88 | 1012.3 |
| 20260505075029 | 49 | 63 | 6.0 | 13.0 | 0.00 | 0.00 | 0.00 | 88 | 1012.3 |
| 20260505074030 | 49 | 53 | 6.0 | 11.0 | 0.00 | 0.00 | 0.00 | 88 | 1012.4 |
| 20260505073030 | 49 | 64 | 8.0 | 13.0 | 0.00 | 0.00 | 0.00 | 88 | 1012.4 |
| 20260505072030 | 49 | 55 | 6.0 | 12.0 | 0.00 | 0.00 | 0.00 | 88 | 1012.5 |
| 20260505071030 | 49 | 63 | 5.0 | 9.0 | 0.00 | 0.00 | 0.00 | 88 | 1012.6 |
| 20260505070030 | 48 | 64 | 6.0 | 14.0 | 0.00 | 0.00 | 0.00 | 88 | 1012.7 |
| 20260505065029 | 49 | 63 | 6.0 | 13.0 | 0.00 | 0.00 | 0.00 | 88 | 1012.6 |
| 20260505064029 | 49 | 67 | 6.0 | 12.0 | 0.00 | 0.00 | 0.00 | 88 | 1012.6 |
| 20260505063030 | 48 | 74 | 6.0 | 12.0 | 0.00 | 0.00 | 0.00 | 88 | 1012.5 |
| 20260505062030 | 49 | 54 | 6.0 | 12.0 | 0.00 | 0.00 | 0.00 | 88 | 1012.5 |
| 20260505061030 | 48 | 58 | 7.0 | 13.0 | 0.00 | 0.00 | 0.00 | 88 | 1012.4 |
| 20260505060030 | 48 | 52 | 6.0 | 12.0 | 0.00 | 0.00 | 0.00 | 88 | 1012.4 |
| 20260505055030 | 48 | 60 | 8.0 | 14.0 | 0.00 | 0.00 | 0.00 | 88 | 1012.3 |
| 20260505054030 | 48 | 56 | 7.0 | 13.0 | 0.00 | 0.00 | 0.00 | 88 | 1012.3 |
| 20260505053030 | 48 | 63 | 7.0 | 13.0 | 0.00 | 0.00 | 0.00 | 88 | 1012.2 |
| 20260505052030 | 48 | 60 | 7.0 | 13.0 | 0.00 | 0.00 | 0.00 | 88 | 1012.1 |
| 20260505051029 | 48 | 60 | 6.0 | 14.0 | 0.00 | 0.00 | 0.00 | 88 | 1012.1 |
| 20260505041030 | 49 | 63 | 4.0 | 11.0 | 0.00 | 0.00 | 0.00 | 87 | 1012.3 |
| 20260505040030 | 49 | 59 | 5.0 | 10.0 | 0.00 | 0.00 | 0.00 | 87 | 1012.3 |
| 20260505035030 | 49 | 63 | 6.0 | 12.0 | 0.00 | 0.00 | 0.00 | 87 | 1012.2 |
| 20260505034030 | 49 | 64 | 6.0 | 14.0 | 0.00 | 0.00 | 0.00 | 87 | 1012.2 |
| 20260505033030 | 49 | 62 | 4.0 | 10.0 | 0.00 | 0.00 | 0.00 | 87 | 1012.1 |
| 20260505032030 | 49 | 62 | 7.0 | 13.0 | 0.00 | 0.00 | 0.00 | 87 | 1012.2 |
| 20260505031029 | 49 | 55 | 6.0 | 11.0 | 0.00 | 0.00 | 0.00 | 87 | 1012.1 |
| 20260505030029 | 49 | 59 | 7.0 | 11.0 | 0.00 | 0.00 | 0.00 | 87 | 1012.1 |
| 20260505025029 | 49 | 64 | 7.0 | 14.0 | 0.00 | 0.00 | 0.00 | 87 | 1012.2 |
| 20260505024029 | 49 | 71 | 6.0 | 10.0 | 0.00 | 0.00 | 0.00 | 87 | 1012.3 |
| 20260505023029 | 49 | 61 | 7.0 | 13.0 | 0.00 | 0.00 | 0.00 | 87 | 1012.4 |
| 20260505022029 | 49 | 69 | 7.0 | 13.0 | 0.00 | 0.00 | 0.00 | 87 | 1012.4 |
| 20260505021029 | 50 | 52 | 6.0 | 11.0 | 0.00 | 0.00 | 0.00 | 87 | 1012.4 |
| 20260505020029 | 50 | 47 | 8.0 | 16.0 | 0.00 | 0.00 | 0.00 | 87 | 1012.5 |
| 20260505015029 | 50 | 55 | 9.0 | 14.0 | 0.00 | 0.00 | 0.00 | 87 | 1012.6 |
| 20260505014029 | 50 | 47 | 8.0 | 12.0 | 0.00 | 0.00 | 0.00 | 87 | 1012.6 |
| 20260505013029 | 50 | 43 | 7.0 | 13.0 | 0.00 | 0.00 | 0.00 | 87 | 1012.6 |
| 20260505012030 | 50 | 46 | 7.0 | 14.0 | 0.00 | 0.00 | 0.00 | 87 | 1012.7 |
| 20260505011030 | 50 | 40 | 7.0 | 13.0 | 0.00 | 0.00 | 0.00 | 87 | 1012.9 |
| 20260505010030 | 50 | 38 | 6.0 | 12.0 | 0.00 | 0.00 | 0.00 | 87 | 1013.0 |
| 20260505005030 | 50 | 40 | 7.0 | 13.0 | 0.00 | 0.00 | 0.00 | 87 | 1013.0 |
| 20260505004030 | 51 | 44 | 6.0 | 13.0 | 0.00 | 0.00 | 0.00 | 87 | 1013.1 |
| 20260505003029 | 51 | 30 | 8.0 | 14.0 | 0.00 | 0.00 | 0.00 | 87 | 1012.9 |
| 20260505002029 | 51 | 38 | 7.0 | 14.0 | 0.00 | 0.00 | 0.00 | 87 | 1013.0 |
| 20260505001029 | 51 | 26 | 7.0 | 14.0 | 0.00 | 0.00 | 0.00 | 87 | 1013.1 |
| 20260505000030 | 51 | 32 | 8.0 | 14.0 | 0.00 | 0.00 | 0.00 | 87 | 1013.1 |
| 20260504235030 | 51 | 25 | 7.0 | 13.0 | 0.00 | 0.00 | 0.00 | 87 | 1013.1 |
| 20260504234030 | 51 | 30 | 7.0 | 14.0 | 0.00 | 0.00 | 0.00 | 87 | 1013.3 |
| 20260504233030 | 51 | 43 | 7.0 | 12.0 | 0.00 | 0.00 | 0.00 | 87 | 1013.2 |
| 20260504232029 | 51 | 32 | 8.0 | 14.0 | 0.00 | 0.00 | 0.00 | 87 | 1013.3 |
| 20260504231029 | 51 | 34 | 8.0 | 13.0 | 0.00 | 0.00 | 0.00 | 86 | 1013.5 |
| 20260504230029 | 52 | 47 | 7.0 | 13.0 | 0.00 | 0.00 | 0.00 | 86 | 1013.5 |
| 20260504225029 | 52 | 34 | 9.0 | 14.0 | 0.00 | 0.00 | 0.00 | 86 | 1013.5 |
| 20260504224030 | 52 | 37 | 9.0 | 14.0 | 0.00 | 0.00 | 0.00 | 86 | 1013.5 |
| 20260504223030 | 52 | 37 | 9.0 | 14.0 | 0.00 | 0.00 | 0.00 | 86 | 1013.5 |
| 20260504222030 | 53 | 24 | 7.0 | 13.0 | 0.00 | 0.00 | 0.00 | 86 | 1013.7 |
| 20260504221030 | 53 | 15 | 8.0 | 13.0 | 0.00 | 0.00 | 0.00 | 86 | 1013.8 |
| 20260504220030 | 53 | 23 | 6.0 | 11.0 | 0.00 | 0.00 | 0.02 | 86 | 1013.8 |
| 20260504215030 | 53 | 40 | 7.0 | 11.0 | 0.00 | 0.00 | 0.02 | 86 | 1013.9 |
| 20260504214030 | 53 | 46 | 8.0 | 13.0 | 0.00 | 0.00 | 0.02 | 86 | 1013.9 |
| 20260504213030 | 53 | 42 | 8.0 | 12.0 | 0.00 | 0.00 | 0.02 | 86 | 1014.0 |
| 20260504212030 | 54 | 40 | 6.0 | 11.0 | 0.00 | 0.00 | 0.02 | 86 | 1014.0 |
| 20260504211030 | 54 | 32 | 9.0 | 15.0 | 0.00 | 0.00 | 0.02 | 86 | 1013.9 |
| 20260504210030 | 54 | 40 | 9.0 | 15.0 | 0.00 | 0.00 | 0.02 | 86 | 1014.1 |
| 20260504205030 | 54 | 47 | 7.0 | 12.0 | 0.00 | 0.00 | 0.02 | 86 | 1014.0 |
| 20260504204030 | 54 | 42 | 8.0 | 12.0 | 0.00 | 0.00 | 0.02 | 86 | 1013.9 |
| 20260504203030 | 55 | 30 | 7.0 | 13.0 | 0.00 | 0.00 | 0.02 | 86 | 1013.8 |
| 20260504202030 | 55 | 32 | 9.0 | 14.0 | 0.00 | 0.00 | 0.02 | 86 | 1013.8 |
| 20260504201030 | 55 | 39 | 9.0 | 14.0 | 0.00 | 0.00 | 0.02 | 86 | 1013.8 |
| 20260504200030 | 55 | 34 | 6.0 | 10.0 | 0.00 | 0.00 | 0.02 | 86 | 1013.7 |
| 20260504195030 | 55 | 43 | 9.0 | 15.0 | 0.00 | 0.00 | 0.02 | 86 | 1013.6 |
| 20260504194030 | 56 | 31 | 9.0 | 15.0 | 0.00 | 0.00 | 0.02 | 86 | 1013.5 |
| 20260504193030 | 56 | 14 | 7.0 | 13.0 | 0.00 | 0.00 | 0.02 | 86 | 1013.4 |
| 20260504192030 | 56 | 25 | 9.0 | 18.0 | 0.00 | 0.00 | 0.02 | 86 | 1013.4 |
| 20260504191030 | 56 | 18 | 9.0 | 18.0 | 0.00 | 0.00 | 0.02 | 85 | 1013.3 |
| 20260504190030 | 57 | 12 | 9.0 | 14.0 | 0.00 | 0.00 | 0.02 | 85 | 1013.3 |
| 20260504185029 | 57 | 12 | 10.0 | 17.0 | 0.00 | 0.00 | 0.02 | 85 | 1013.2 |
| 20260504184029 | 57 | 15 | 9.0 | 15.0 | 0.00 | 0.00 | 0.02 | 85 | 1013.4 |
| 20260504183030 | 58 | 3 | 11.0 | 17.0 | 0.00 | 0.00 | 0.02 | 85 | 1013.2 |
| 20260504182030 | 58 | 1 | 11.0 | 17.0 | 0.00 | 0.00 | 0.02 | 84 | 1013.1 |
| 20260504181030 | 58 | 7 | 11.0 | 16.0 | 0.00 | 0.00 | 0.02 | 83 | 1013.1 |
| 20260504180030 | 59 | 3 | 11.0 | 17.0 | 0.00 | 0.00 | 0.02 | 83 | 1013.1 |
| 20260504175030 | 59 | 359 | 10.0 | 17.0 | 0.00 | 0.00 | 0.02 | 83 | 1013.1 |
| 20260504174030 | 60 | 349 | 10.0 | 15.0 | 0.00 | 0.00 | 0.02 | 83 | 1013.1 |
| 20260504173030 | 60 | 5 | 9.0 | 14.0 | 0.00 | 0.00 | 0.02 | 83 | 1013.2 |
| 20260504172030 | 60 | 339 | 10.0 | 15.0 | 0.00 | 0.00 | 0.02 | 83 | 1013.0 |
| 20260504171029 | 60 | 4 | 9.0 | 16.0 | 0.00 | 0.00 | 0.02 | 83 | 1013.1 |